TimeEEST,TemperatureF,Dew PointF,Humidity,Sea Level PressureIn,VisibilityMPH,Wind Direction,Wind SpeedMPH,Gust SpeedMPH,PrecipitationIn,Events,Conditions,WindDirDegrees,DateUTC
12:00 AM,60,50,60,30.01,6,WSW,4.5,,,,Partly Cloudy,240,2009-03-30 21:00:00
12:00 AM,62.6,55.4,77,29.98,-9999.0,SW,6.9,-,N/A,,Clear,230,2009-03-30 21:00:00
12:30 AM,60.8,53.6,77,29.98,-9999.0,SSW,5.8,-,N/A,,Clear,210,2009-03-30 21:30:00
1:00 AM,58,48,62,30.01,6,SW,2.2,,,,Partly Cloudy,230,2009-03-30 22:00:00
1:00 AM,60.8,53.6,77,29.98,-9999.0,WSW,5.8,-,N/A,,Clear,240,2009-03-30 22:00:00
1:30 AM,60.8,55.4,82,29.98,-9999.0,SW,6.9,-,N/A,,Clear,230,2009-03-30 22:30:00
2:00 AM,58,49,65,30.03,6,WSW,4.5,,,,Partly Cloudy,240,2009-03-30 23:00:00
2:00 AM,60.8,53.6,77,29.98,-9999.0,SW,9.2,-,N/A,,Clear,230,2009-03-30 23:00:00
2:30 AM,59.0,53.6,82,29.98,-9999.0,WSW,5.8,-,N/A,,Clear,240,2009-03-30 23:30:00
3:00 AM,56,48,67,30.02,6,WSW,4.5,,,,Partly Cloudy,250,2009-03-31 00:00:00
3:00 AM,59.0,53.6,82,29.98,-9999.0,WSW,5.8,-,N/A,,Clear,240,2009-03-31 00:00:00
3:30 AM,57.2,55.4,94,30.01,-9999.0,WNW,4.6,-,N/A,,Clear,290,2009-03-31 00:30:00
4:00 AM,53,47,75,30.03,6,WNW,2.2,,,,,300,2009-03-31 01:00:00
4:00 AM,55.4,53.6,94,29.98,-9999.0,Variable,2.3,-,N/A,,Clear,0,2009-03-31 01:00:00
4:30 AM,55.4,53.6,94,29.98,-9999.0,Variable,2.3,-,N/A,,Clear,0,2009-03-31 01:30:00
5:00 AM,49,47,92,30.02,6,SSW,2.2,,,,,210,2009-03-31 02:00:00
5:00 AM,53.6,53.6,100,29.98,-9999.0,WNW,1.2,-,N/A,,Clear,300,2009-03-31 02:00:00
5:30 AM,53.6,53.6,100,30.01,-9999.0,North,3.5,-,N/A,,Clear,10,2009-03-31 02:30:00
6:00 AM,50,49,94,30.04,6,North,2.2,,,,Scattered Clouds,0,2009-03-31 03:00:00
6:00 AM,51.8,51.8,100,30.01,-9999.0,NE,3.5,-,N/A,,Clear,50,2009-03-31 03:00:00
6:30 AM,51.8,50.0,94,30.04,-9999.0,ENE,5.8,-,N/A,,Clear,60,2009-03-31 03:30:00
7:00 AM,53,48,76,30.06,6,ENE,6.7,,,,Scattered Clouds,70,2009-03-31 04:00:00
7:00 AM,51.8,51.8,100,30.04,-9999.0,ENE,6.9,-,N/A,,Clear,60,2009-03-31 04:00:00
7:30 AM,53.6,53.6,100,30.06,-9999.0,NE,8.1,-,N/A,,Unknown,50,2009-03-31 04:30:00
8:00 AM,54,47,70,30.09,6,ENE,8.9,,,,Scattered Clouds,60,2009-03-31 05:00:00
8:00 AM,55.4,53.6,94,30.06,-9999.0,NE,10.4,-,N/A,,Clear,50,2009-03-31 05:00:00
8:30 AM,55.4,53.6,94,30.06,-9999.0,NE,10.4,-,N/A,,Clear,50,2009-03-31 05:30:00
9:00 AM,54,47,72,30.11,6,ENE,8.9,,,,Clear,70,2009-03-31 06:00:00
9:00 AM,57.2,57.2,100,30.06,-9999.0,ENE,10.4,-,N/A,,Clear,60,2009-03-31 06:00:00
9:30 AM,59.0,57.2,94,30.09,-9999.0,ENE,12.7,-,N/A,,Clear,70,2009-03-31 06:30:00
10:00 AM,59,50,63,30.12,6,ENE,8.9,,,,,70,2009-03-31 07:00:00
10:00 AM,60.8,59.0,94,30.09,-9999.0,ENE,13.8,-,N/A,,Clear,70,2009-03-31 07:00:00
10:30 AM,60.8,60.8,100,30.09,-9999.0,ENE,17.3,-,N/A,,Clear,70,2009-03-31 07:30:00
11:00 AM,62,50,56,30.13,6,East,8.9,,,,Clear,80,2009-03-31 08:00:00
11:00 AM,62.6,59.0,88,30.09,-9999.0,ENE,17.3,-,N/A,,Clear,60,2009-03-31 08:00:00
11:30 AM,64.4,59.0,83,30.09,-9999.0,ENE,18.4,-,N/A,,Clear,70,2009-03-31 08:30:00
12:00 PM,65,49,46,30.14,6,ENE,13.4,,,,Scattered Clouds,70,2009-03-31 09:00:00
12:00 PM,66.2,57.2,73,30.09,-9999.0,ENE,16.1,-,N/A,,Clear,70,2009-03-31 09:00:00
12:30 PM,66.2,57.2,73,30.09,6.2,ENE,17.3,-,N/A,,Partly Cloudy,60,2009-03-31 09:30:00
1:00 PM,65,48,43,30.14,6,ENE,13.4,,,,Partly Cloudy,60,2009-03-31 10:00:00
1:00 PM,66.2,57.2,73,30.09,6.2,ENE,17.3,-,N/A,,Partly Cloudy,60,2009-03-31 10:00:00
1:30 PM,66.2,57.2,73,30.09,6.2,ENE,13.8,-,N/A,,Partly Cloudy,60,2009-03-31 10:30:00
2:00 PM,67,47,38,30.13,6,East,11.2,,,,Partly Cloudy,80,2009-03-31 11:00:00
2:00 PM,68.0,57.2,68,30.09,6.2,ENE,16.1,-,N/A,,Partly Cloudy,60,2009-03-31 11:00:00
2:30 PM,68.0,57.2,68,30.09,6.2,ENE,13.8,-,N/A,,Scattered Clouds,70,2009-03-31 11:30:00
3:00 PM,66,47,39,30.12,6,East,11.2,,,,Scattered Clouds,80,2009-03-31 12:00:00
3:30 PM,68.0,55.4,64,30.06,6.2,ENE,15.0,-,N/A,,Partly Cloudy,60,2009-03-31 12:30:00
4:00 PM,68,48,37,30.10,6,East,11.2,,,,Scattered Clouds,80,2009-03-31 13:00:00
4:00 PM,68.0,57.2,68,30.06,6.2,ENE,16.1,-,N/A,,Partly Cloudy,70,2009-03-31 13:00:00
4:30 PM,66.2,57.2,73,30.06,6.2,ENE,15.0,-,N/A,,Partly Cloudy,60,2009-03-31 13:30:00
5:00 PM,65,46,40,30.12,6,ENE,11.2,,,,Scattered Clouds,70,2009-03-31 14:00:00
5:00 PM,66.2,55.4,68,30.09,6.2,ENE,13.8,-,N/A,,Partly Cloudy,60,2009-03-31 14:00:00
5:30 PM,64.4,55.4,73,30.09,6.2,NE,15.0,-,N/A,,Partly Cloudy,50,2009-03-31 14:30:00
6:00 PM,63,46,43,30.13,6,ENE,13.4,,,,Mostly Cloudy,60,2009-03-31 15:00:00
6:00 PM,62.6,55.4,77,30.09,-9999.0,NE,16.1,-,N/A,,Clear,50,2009-03-31 15:00:00
6:30 PM,62.6,55.4,77,30.09,-9999.0,NE,15.0,-,N/A,,Clear,50,2009-03-31 15:30:00
7:00 PM,61,46,47,30.14,6,ENE,11.2,,,,Mostly Cloudy,60,2009-03-31 16:00:00
7:30 PM,59.0,51.8,77,30.09,-9999.0,NE,15.0,-,N/A,,Clear,50,2009-03-31 16:30:00
8:00 PM,58,44,50,30.14,6,NE,11.2,,,,Mostly Cloudy,50,2009-03-31 17:00:00
8:00 PM,57.2,51.8,82,30.12,-9999.0,NE,11.5,-,N/A,,Clear,50,2009-03-31 17:00:00
8:30 PM,57.2,51.8,82,30.12,-9999.0,NE,15.0,-,N/A,,Clear,50,2009-03-31 17:30:00
9:00 PM,56,44,54,30.17,6,ENE,13.4,,,,Mostly Cloudy,60,2009-03-31 18:00:00
9:00 PM,57.2,51.8,82,30.12,-9999.0,NE,12.7,-,N/A,,Clear,50,2009-03-31 18:00:00
9:30 PM,55.4,51.8,88,30.15,-9999.0,NE,12.7,-,N/A,,Clear,50,2009-03-31 18:30:00
10:00 PM,55,44,58,30.18,6,ENE,11.2,,,,Overcast,60,2009-03-31 19:00:00
10:30 PM,55.4,51.8,88,30.15,-9999.0,ENE,12.7,-,N/A,,Clear,60,2009-03-31 19:30:00
11:00 PM,54,45,62,30.19,6,ENE,8.9,,,,Partly Cloudy,70,2009-03-31 20:00:00
11:00 PM,53.6,51.8,94,30.15,-9999.0,ENE,11.5,-,N/A,,Clear,60,2009-03-31 20:00:00
11:30 PM,53.6,51.8,94,30.15,-9999.0,NE,12.7,-,N/A,,Clear,50,2009-03-31 20:30:00